Location: Emblem
(62.4273°N, 6.4710°E)
Time: 03:00:42
(UTC+01:00)

S-56A Canister/Altair - All Passes

Search period start: 29 February 2024 00:00
Search period end: 10 March 2024 00:00
Orbit: 640 x 2488 km, 38.9° (Epoch: 28 February)

Date Brightness Start Highest point End Pass type
(mag) Time Alt. Az. Time Alt. Az. Time Alt. Az.
06 Mar - 09:33:02 10° SSW 09:33:50 10° S 09:34:36 10° S daylight
07 Mar - 06:57:42 10° S 06:58:33 10° SSE 06:59:22 10° SSE daylight
07 Mar - 08:58:05 10° SSW 09:00:39 12° S 09:02:59 10° SSE daylight
08 Mar - 06:23:38 10° S 06:25:14 10° SSE 06:26:47 10° SSE visible
08 Mar - 08:23:47 10° SSW 08:27:27 13° S 08:30:38 10° SSE daylight
09 Mar - 05:49:56 10° S 05:51:54 11° SSE 05:53:45 10° SSE visible
09 Mar - 07:49:39 10° SSW 07:54:11 14° S 07:58:04 10° SSE daylight
